Simultaneous Nadir Overpasses (SNOs) Predictions

Prediction of SNOs between METOP-B and NOAA-19 Satellite Orbit:

Table of predicted SNOs for the next 14.0 days since TLE Epoch: 7/3/2020
Index Date (METOP-B) Time (METOP-B) Lat,Lon (METOP-B) SZA (METOP-B ) Date (NOAA-19) Time (NOAA-19) Lat,Lon (NOAA-19) SZA (NOAA-19 ) Distance(km) Time Diff (sec)
1 07/13/2020 19:41:10 80.08, -92.31 59.12 07/13/2020 19:40:00 80.07, -92.19 59.09 2.70 70
2 07/13/2020 20:31:52 -80.07, 74.85 120.91 07/13/2020 20:31:06 -80.08, 74.91 120.91 1.89 46
3 07/13/2020 21:22:32 80.07,-117.79 59.11 07/13/2020 21:22:01 80.08,-117.83 59.10 1.46 31
4 07/13/2020 22:13:13 -80.08, 49.67 120.87 07/13/2020 22:13:06 -80.07, 49.59 120.90 2.38 7
5 07/13/2020 23:03:54 80.06,-143.26 59.09 07/13/2020 23:04:01 80.07,-143.15 59.12 2.49 7
6 07/13/2020 23:54:35 -80.07, 24.20 120.88 07/13/2020 23:55:06 -80.05, 24.27 120.88 2.14 31
7 07/14/2020 00:45:15 80.07,-168.44 59.13 07/14/2020 00:46:01 80.05,-168.47 59.13 2.08 46
